This is the latest recevied weather packets stored in our database for station/object W9KHP-1. If no packets are shown the sender has not sent any weather packets the latest 10 day(s).
| Time | Temp. | Humidity | Pressure | Rain* | Wind** | Luminosity | Snow |
|---|---|---|---|---|---|---|---|
| 1777722879 | 7.22° C | 91% | 1019.9 hPa | 0 mm | - | 28 W/m² | - |
| 1777722575 | 7.22° C | 92% | 1019.7 hPa | 0 mm | - | 28 W/m² | - |
| 1777722272 | 7.22° C | 92% | 1019.7 hPa | 0 mm | - | 23 W/m² | - |
| 1777721969 | 7.22° C | 92% | 1019.7 hPa | 0 mm | - | 14 W/m² | - |
| 1777721666 | 7.22° C | 91% | 1019.8 hPa | 0 mm | - | 11 W/m² | - |
| 1777721365 | 7.22° C | 90% | 1019.5 hPa | 0 mm | - | 7 W/m² | - |
| 1777721062 | 7.22° C | 91% | 1019.6 hPa | 0 mm | - | 4 W/m² | - |
| 1777720760 | 7.22° C | 89% | 1019.7 hPa | 0 mm | - | 3 W/m² | - |
| 1777720456 | 7.22° C | 88% | 1019.5 hPa | 0 mm | - | 2 W/m² | - |
| 1777720154 | 7.78° C | 88% | 1019.4 hPa | 0 mm | - | 1 W/m² | - |
| 1777719852 | 7.78° C | 88% | 1019.6 hPa | 0 mm | - | 1 W/m² | - |
| 1777719549 | 7.78° C | 86% | 1019.5 hPa | 0 mm | - | 0 W/m² | - |
| 1777719245 | 7.78° C | 88% | 1019.3 hPa | 0 mm | - | 0 W/m² | - |
| 1777718944 | 7.78° C | 87% | 1019.4 hPa | 0 mm | - | 0 W/m² | - |
| 1777718641 | 7.78° C | 87% | 1019.3 hPa | 0 mm | - | 0 W/m² | - |
| 1777718338 | 7.78° C | 86% | 1019.2 hPa | 0 mm | - | 0 W/m² | - |
| 1777718035 | 7.78° C | 86% | 1019.1 hPa | 0 mm | - | 0 W/m² | - |
| 1777717732 | 7.78° C | 86% | 1019.2 hPa | 0 mm | - | 0 W/m² | - |
| 1777717429 | 7.78° C | 86% | 1019 hPa | 0 mm | - | 0 W/m² | - |
| 1777717126 | 7.78° C | 85% | 1019.1 hPa | 0 mm | - | 0 W/m² | - |
| 1777716824 | 7.78° C | 85% | 1019.1 hPa | 0 mm | - | 0 W/m² | - |
| 1777716522 | 7.78° C | 87% | 1019 hPa | 0 mm | - | 0 W/m² | - |
| 1777716222 | 7.78° C | 86% | 1018.9 hPa | 0 mm | - | 0 W/m² | - |
| 1777715918 | 7.78° C | 85% | 1019 hPa | 0 mm | - | 0 W/m² | - |
| 1777715616 | 7.78° C | 85% | 1018.8 hPa | 0 mm | - | 0 W/m² | - |
* Rain latest hour (hover to see other rain measurements)
** Current wind speed in m/s (hover to see current wind gust speed)